Year,Month,Day,Hour,Minute,Value (Times are PST for temperature in C)
2011,12,07,12,37,4.60
2011,12,07,12,38,4.60
2011,12,07,12,39,4.60
2011,12,07,12,40,4.60
2011,12,07,12,41,4.60
2011,12,07,12,42,4.60
2011,12,07,12,43,4.60
2011,12,07,12,44,4.60
2011,12,07,12,45,4.60
2011,12,07,12,46,4.60
2011,12,07,12,47,4.60
2011,12,07,12,48,4.60
2011,12,07,12,49,4.60
2011,12,07,12,50,4.60
2011,12,07,12,51,4.60
2011,12,07,12,52,4.70
2011,12,07,12,53,4.70
2011,12,07,12,54,4.70
2011,12,07,12,55,4.70
2011,12,07,12,56,4.70
2011,12,07,12,57,4.60
2011,12,07,12,58,4.60
2011,12,07,12,59,4.60
2011,12,07,13,00,4.60
2011,12,07,13,01,4.60
2011,12,07,13,02,4.60
2011,12,07,13,03,4.60
2011,12,07,13,04,4.60
2011,12,07,13,05,4.60
2011,12,07,13,06,4.60
2011,12,07,13,07,4.60
2011,12,07,13,08,4.60
2011,12,07,13,09,4.60
2011,12,07,13,10,4.60
2011,12,07,13,11,4.60
2011,12,07,13,12,4.60
2011,12,07,13,13,4.60
2011,12,07,13,14,4.60
2011,12,07,13,15,4.60
2011,12,07,13,16,4.60
2011,12,07,13,17,4.60
2011,12,07,13,18,4.60
2011,12,07,13,19,4.60
2011,12,07,13,20,4.60
2011,12,07,13,21,4.60
2011,12,07,13,22,4.60
2011,12,07,13,23,4.60
2011,12,07,13,24,4.60
2011,12,07,13,25,4.60
2011,12,07,13,26,4.60
2011,12,07,13,27,4.60
2011,12,07,13,28,4.70
2011,12,07,13,29,4.70
2011,12,07,13,30,4.70
2011,12,07,13,31,4.70
2011,12,07,13,32,4.80
2011,12,07,13,33,4.80
2011,12,07,13,34,4.80
2011,12,07,13,35,4.80
2011,12,07,13,36,4.90
2011,12,07,13,37,4.90
2011,12,07,13,38,4.90
2011,12,07,13,39,4.90
2011,12,07,13,40,4.90
2011,12,07,13,41,4.90
2011,12,07,13,42,4.90
2011,12,07,13,43,4.90
2011,12,07,13,44,4.90
2011,12,07,13,45,4.90
2011,12,07,13,46,4.90
2011,12,07,13,47,4.90
2011,12,07,13,48,4.90
2011,12,07,13,49,4.90
2011,12,07,13,50,4.90
2011,12,07,13,51,4.90
2011,12,07,13,52,4.90
2011,12,07,13,53,4.90
2011,12,07,13,54,4.90
2011,12,07,13,55,4.90
2011,12,07,13,56,4.90
2011,12,07,13,57,4.90
2011,12,07,13,58,4.90
2011,12,07,13,59,4.90
2011,12,07,14,00,4.90
2011,12,07,14,01,4.90
2011,12,07,14,02,4.90
2011,12,07,14,03,4.90
2011,12,07,14,04,4.90
2011,12,07,14,05,4.90
2011,12,07,14,06,4.90
2011,12,07,14,07,4.90
2011,12,07,14,08,4.90
2011,12,07,14,09,4.90
2011,12,07,14,10,4.90
2011,12,07,14,11,4.90
2011,12,07,14,12,4.80
2011,12,07,14,13,4.80
2011,12,07,14,14,4.80
2011,12,07,14,15,4.90
2011,12,07,14,16,4.90
2011,12,07,14,17,4.90
2011,12,07,14,18,4.90
2011,12,07,14,19,4.90
2011,12,07,14,20,4.90
2011,12,07,14,21,4.90
2011,12,07,14,22,4.90
2011,12,07,14,23,4.90
2011,12,07,14,24,4.90
2011,12,07,14,25,4.90
2011,12,07,14,26,4.90
2011,12,07,14,27,4.90
2011,12,07,14,28,4.90
2011,12,07,14,29,4.90
2011,12,07,14,30,4.90
2011,12,07,14,31,4.90
2011,12,07,14,32,4.90
2011,12,07,14,33,4.90
2011,12,07,14,34,4.90
2011,12,07,14,35,4.90
2011,12,07,14,36,4.90
2011,12,07,14,37,4.90
2011,12,07,14,38,4.90
2011,12,07,14,39,4.90
2011,12,07,14,40,4.90
2011,12,07,14,41,4.90
2011,12,07,14,42,4.90
2011,12,07,14,43,4.90
2011,12,07,14,44,4.90
2011,12,07,14,45,4.90
2011,12,07,14,46,4.90
2011,12,07,14,47,4.90
2011,12,07,14,48,4.90
2011,12,07,14,49,4.90
2011,12,07,14,50,4.90
2011,12,07,14,51,4.90
2011,12,07,14,52,4.90
2011,12,07,14,53,4.90
2011,12,07,14,54,4.90
2011,12,07,14,55,4.90
2011,12,07,14,56,4.90
2011,12,07,14,57,4.90
2011,12,07,14,58,4.90
2011,12,07,14,59,4.90
2011,12,07,15,00,4.90
2011,12,07,15,01,4.90
2011,12,07,15,02,4.90
2011,12,07,15,03,4.90
2011,12,07,15,04,4.90
2011,12,07,15,05,4.90
2011,12,07,15,06,4.90
2011,12,07,15,07,4.90
2011,12,07,15,08,4.90
2011,12,07,15,09,4.90
2011,12,07,15,10,4.90
2011,12,07,15,11,4.90
2011,12,07,15,12,4.90
2011,12,07,15,13,4.80
2011,12,07,15,14,4.80
2011,12,07,15,15,4.80
2011,12,07,15,16,4.80
2011,12,07,15,17,4.80
2011,12,07,15,18,4.80
2011,12,07,15,19,4.80
2011,12,07,15,20,4.80
2011,12,07,15,21,4.80
2011,12,07,15,22,4.80
2011,12,07,15,23,4.80
2011,12,07,15,24,4.80
2011,12,07,15,25,4.70
2011,12,07,15,26,4.70
2011,12,07,15,27,4.70
2011,12,07,15,28,4.70
2011,12,07,15,29,4.70
2011,12,07,15,30,4.70
2011,12,07,15,31,4.60
2011,12,07,15,32,4.60
2011,12,07,15,33,4.60
2011,12,07,15,34,4.60
2011,12,07,15,35,4.60
2011,12,07,15,36,4.60
2011,12,07,15,37,4.60
2011,12,07,15,38,4.60
2011,12,07,15,39,4.60
2011,12,07,15,40,4.60
2011,12,07,15,41,4.60
2011,12,07,15,42,4.60
2011,12,07,15,43,4.60
2011,12,07,15,44,4.50
2011,12,07,15,45,4.50
2011,12,07,15,46,4.50
2011,12,07,15,47,4.40
2011,12,07,15,48,4.40
2011,12,07,15,49,4.40
2011,12,07,15,50,4.30
2011,12,07,15,51,4.30
2011,12,07,15,52,4.30
2011,12,07,15,53,4.20
2011,12,07,15,54,4.20
2011,12,07,15,55,4.20
2011,12,07,15,56,4.20
2011,12,07,15,57,4.20
2011,12,07,15,58,4.10
2011,12,07,15,59,4.10
2011,12,07,16,00,4.10
2011,12,07,16,01,4.10
2011,12,07,16,02,4.10
2011,12,07,16,03,4.10
2011,12,07,16,04,4.00
2011,12,07,16,05,4.00
2011,12,07,16,06,4.00
2011,12,07,16,07,4.00
2011,12,07,16,08,4.00
2011,12,07,16,09,4.00
2011,12,07,16,10,4.00
2011,12,07,16,11,3.90
2011,12,07,16,12,3.90
2011,12,07,16,13,3.90
2011,12,07,16,14,3.90
2011,12,07,16,15,3.90
2011,12,07,16,16,3.80
2011,12,07,16,17,3.80
2011,12,07,16,18,3.80
2011,12,07,16,19,3.80
2011,12,07,16,20,3.80
2011,12,07,16,21,3.70
2011,12,07,16,22,3.70
2011,12,07,16,23,3.70
2011,12,07,16,24,3.60
2011,12,07,16,25,3.60
2011,12,07,16,26,3.60
2011,12,07,16,27,3.50
2011,12,07,16,28,3.50
2011,12,07,16,29,3.50
2011,12,07,16,30,3.40
2011,12,07,16,31,3.40
2011,12,07,16,32,3.40
2011,12,07,16,33,3.30
2011,12,07,16,34,3.30
2011,12,07,16,35,3.30
2011,12,07,16,36,3.30
2011,12,07,16,37,3.20
2011,12,07,16,38,3.20
2011,12,07,16,39,3.20
2011,12,07,16,40,3.10
2011,12,07,16,41,3.10
2011,12,07,16,42,3.10
2011,12,07,16,43,3.10
2011,12,07,16,44,3.10
2011,12,07,16,45,3.00
2011,12,07,16,46,2.90
2011,12,07,16,47,2.90
2011,12,07,16,48,2.90
2011,12,07,16,49,2.90
2011,12,07,16,50,2.90
2011,12,07,16,51,2.90
2011,12,07,16,52,2.90
2011,12,07,16,53,2.90
2011,12,07,16,54,2.90
2011,12,07,16,55,2.90
2011,12,07,16,56,2.90
2011,12,07,16,57,2.90
2011,12,07,16,58,2.80
2011,12,07,16,59,2.80
2011,12,07,17,00,2.80
2011,12,07,17,01,2.80
2011,12,07,17,02,2.80
2011,12,07,17,03,2.70
2011,12,07,17,04,2.70
2011,12,07,17,05,2.70
2011,12,07,17,06,2.70
2011,12,07,17,07,2.70
2011,12,07,17,08,2.70
2011,12,07,17,09,2.60
2011,12,07,17,10,2.60
2011,12,07,17,11,2.60
2011,12,07,17,12,2.60
2011,12,07,17,13,2.50
2011,12,07,17,14,2.50
2011,12,07,17,15,2.50
2011,12,07,17,16,2.50
2011,12,07,17,17,2.50
2011,12,07,17,18,2.40
2011,12,07,17,19,2.40
2011,12,07,17,20,2.40
2011,12,07,17,21,2.40
2011,12,07,17,22,2.40
2011,12,07,17,23,2.40
2011,12,07,17,24,2.40
2011,12,07,17,25,2.40
2011,12,07,17,26,2.40
2011,12,07,17,27,2.50
2011,12,07,17,28,2.50
2011,12,07,17,29,2.50
2011,12,07,17,30,2.60
2011,12,07,17,31,2.50
2011,12,07,17,32,2.50
2011,12,07,17,33,2.50
2011,12,07,17,34,2.50
2011,12,07,17,35,2.50
2011,12,07,17,36,2.50
2011,12,07,17,37,2.50
2011,12,07,17,38,2.40
2011,12,07,17,39,2.40
2011,12,07,17,40,2.40
2011,12,07,17,41,2.30
2011,12,07,17,42,2.30
2011,12,07,17,43,2.20
2011,12,07,17,44,2.20
2011,12,07,17,45,2.20
2011,12,07,17,46,2.20
2011,12,07,17,47,2.20
2011,12,07,17,48,2.20
2011,12,07,17,49,2.20
2011,12,07,17,50,2.20
2011,12,07,17,51,2.20
2011,12,07,17,52,2.20
2011,12,07,17,53,2.20
2011,12,07,17,54,2.20
2011,12,07,17,55,2.10
2011,12,07,17,56,2.10
2011,12,07,17,57,2.10
2011,12,07,17,58,2.00
2011,12,07,17,59,2.00
2011,12,07,18,00,2.00
2011,12,07,18,01,1.90
2011,12,07,18,02,1.90
2011,12,07,18,03,1.90
2011,12,07,18,04,1.90
2011,12,07,18,05,1.90
2011,12,07,18,06,1.90
2011,12,07,18,07,1.90
2011,12,07,18,08,1.90
2011,12,07,18,09,1.90
2011,12,07,18,10,1.80
2011,12,07,18,11,1.80
2011,12,07,18,12,1.80
2011,12,07,18,13,1.80
2011,12,07,18,14,1.80
2011,12,07,18,15,1.80
2011,12,07,18,16,1.80
2011,12,07,18,17,1.80
2011,12,07,18,18,1.70
2011,12,07,18,19,1.70
2011,12,07,18,20,1.70
2011,12,07,18,21,1.70
2011,12,07,18,22,1.70
2011,12,07,18,23,1.60
2011,12,07,18,24,1.60
2011,12,07,18,25,1.60
2011,12,07,18,26,1.60
2011,12,07,18,27,1.60
2011,12,07,18,28,1.60
2011,12,07,18,29,1.50
2011,12,07,18,30,1.50
2011,12,07,18,31,1.50
2011,12,07,18,32,1.50
2011,12,07,18,33,1.50
2011,12,07,18,34,1.50
2011,12,07,18,35,1.50
2011,12,07,18,36,1.40
2011,12,07,18,37,1.40
2011,12,07,18,38,1.30
2011,12,07,18,39,1.30
2011,12,07,18,40,1.30
2011,12,07,18,41,1.30
2011,12,07,18,42,1.30
2011,12,07,18,43,1.30
2011,12,07,18,44,1.30
2011,12,07,18,45,1.30
2011,12,07,18,46,1.20
2011,12,07,18,47,1.20
2011,12,07,18,48,1.20
2011,12,07,18,49,1.20
2011,12,07,18,50,1.10
2011,12,07,18,51,1.10
2011,12,07,18,52,1.10
2011,12,07,18,53,1.10
2011,12,07,18,54,1.10
2011,12,07,18,55,1.10
2011,12,07,18,56,1.10
2011,12,07,18,57,1.10
2011,12,07,18,58,1.10
2011,12,07,18,59,1.10
2011,12,07,19,00,1.10
2011,12,07,19,01,1.00
2011,12,07,19,02,1.00
2011,12,07,19,03,1.00
2011,12,07,19,04,1.00
2011,12,07,19,05,0.90
2011,12,07,19,06,0.90
2011,12,07,19,07,0.90
2011,12,07,19,08,0.90
2011,12,07,19,09,0.80
2011,12,07,19,10,0.80
2011,12,07,19,11,0.80
2011,12,07,19,12,0.80
2011,12,07,19,13,0.80
2011,12,07,19,14,0.80
2011,12,07,19,15,0.80
2011,12,07,19,16,0.80
2011,12,07,19,17,0.80
2011,12,07,19,18,0.80
2011,12,07,19,19,0.80
2011,12,07,19,20,0.70
2011,12,07,19,21,0.70
2011,12,07,19,22,0.60
2011,12,07,19,23,0.60
2011,12,07,19,24,0.60
2011,12,07,19,25,0.60
2011,12,07,19,26,0.60
2011,12,07,19,27,0.50
2011,12,07,19,28,0.50
2011,12,07,19,29,0.50
2011,12,07,19,30,0.50
2011,12,07,19,31,0.50
2011,12,07,19,32,0.50
2011,12,07,19,33,0.50
2011,12,07,19,34,0.50
2011,12,07,19,35,0.50
2011,12,07,19,36,0.60
2011,12,07,19,37,0.60
2011,12,07,19,38,0.60
2011,12,07,19,39,0.50
2011,12,07,19,40,0.50
2011,12,07,19,41,0.50
2011,12,07,19,42,0.50
2011,12,07,19,43,0.50
2011,12,07,19,44,0.50
2011,12,07,19,45,0.50
2011,12,07,19,46,0.50
2011,12,07,19,47,0.50
2011,12,07,19,48,0.50
2011,12,07,19,49,0.50
2011,12,07,19,50,0.50
2011,12,07,19,51,0.40
2011,12,07,19,52,0.40
2011,12,07,19,53,0.40
2011,12,07,19,54,0.40
2011,12,07,19,55,0.40
2011,12,07,19,56,0.40
2011,12,07,19,57,0.40
2011,12,07,19,58,0.40
2011,12,07,19,59,0.40
2011,12,07,20,00,0.40
2011,12,07,20,01,0.40
2011,12,07,20,02,0.40
2011,12,07,20,03,0.40
2011,12,07,20,04,0.30
2011,12,07,20,05,0.30
2011,12,07,20,06,0.30
2011,12,07,20,07,0.30
2011,12,07,20,08,0.20
2011,12,07,20,09,0.20
2011,12,07,20,10,0.20
2011,12,07,20,11,0.20
2011,12,07,20,12,0.10
2011,12,07,20,13,0.10
2011,12,07,20,14,0.10
2011,12,07,20,15,0.10
2011,12,07,20,16,0.10
2011,12,07,20,17,0.10
2011,12,07,20,18,0.10
2011,12,07,20,19,0.10
2011,12,07,20,20,0.10
2011,12,07,20,21,0.10
2011,12,07,20,22,0.10
2011,12,07,20,23,0.10
2011,12,07,20,24,0.10
2011,12,07,20,25,0.10
2011,12,07,20,26,0.10
2011,12,07,20,27,0.10
2011,12,07,20,28,0.10
2011,12,07,20,29,0.10
2011,12,07,20,30,0.10
2011,12,07,20,31,0.00
2011,12,07,20,32,-0.10
2011,12,07,20,33,-0.10
2011,12,07,20,34,-0.10
2011,12,07,20,35,-0.10
2011,12,07,20,36,-0.10
2011,12,07,20,37,-0.10
2011,12,07,20,38,-0.10
2011,12,07,20,39,-0.10
2011,12,07,20,40,-0.10
2011,12,07,20,41,-0.10
2011,12,07,20,42,-0.10
2011,12,07,20,43,-0.10
2011,12,07,20,44,-0.10
2011,12,07,20,45,-0.10
2011,12,07,20,46,-0.10
2011,12,07,20,47,-0.10
2011,12,07,20,48,-0.20
2011,12,07,20,49,-0.20
2011,12,07,20,50,-0.20
2011,12,07,20,51,-0.20
2011,12,07,20,52,-0.20
2011,12,07,20,53,-0.20
2011,12,07,20,54,-0.20
2011,12,07,20,55,-0.20
2011,12,07,20,56,-0.20
2011,12,07,20,57,-0.20
2011,12,07,20,58,-0.20
2011,12,07,20,59,-0.20
2011,12,07,21,00,-0.20
2011,12,07,21,01,-0.20
2011,12,07,21,02,-0.30
2011,12,07,21,03,-0.30
2011,12,07,21,04,-0.30
2011,12,07,21,05,-0.30
2011,12,07,21,06,-0.30
2011,12,07,21,07,-0.40
2011,12,07,21,08,-0.40
2011,12,07,21,09,-0.40
2011,12,07,21,10,-0.40
2011,12,07,21,11,-0.40
2011,12,07,21,12,-0.40
2011,12,07,21,13,-0.40
2011,12,07,21,14,-0.40
2011,12,07,21,15,-0.50
2011,12,07,21,16,-0.60
2011,12,07,21,17,-0.60
2011,12,07,21,18,-0.60
2011,12,07,21,19,-0.60
2011,12,07,21,20,-0.60
2011,12,07,21,21,-0.60
2011,12,07,21,22,-0.60
2011,12,07,21,23,-0.60
2011,12,07,21,24,-0.60
2011,12,07,21,25,-0.60
2011,12,07,21,26,-0.60
2011,12,07,21,27,-0.60
2011,12,07,21,28,-0.60
2011,12,07,21,29,-0.60
2011,12,07,21,30,-0.60
2011,12,07,21,31,-0.70
2011,12,07,21,32,-0.70
2011,12,07,21,33,-0.70
2011,12,07,21,34,-0.70
2011,12,07,21,35,-0.70
2011,12,07,21,36,-0.70
2011,12,07,21,37,-0.70
2011,12,07,21,38,-0.70
2011,12,07,21,39,-0.70
2011,12,07,21,40,-0.70
2011,12,07,21,41,-0.70
2011,12,07,21,42,-0.70
2011,12,07,21,43,-0.70
2011,12,07,21,44,-0.70
2011,12,07,21,45,-0.70
2011,12,07,21,46,-0.70
2011,12,07,21,47,-0.70
2011,12,07,21,48,-0.70
2011,12,07,21,49,-0.70
2011,12,07,21,50,-0.70
2011,12,07,21,51,-0.70
2011,12,07,21,52,-0.70
2011,12,07,21,53,-0.70
2011,12,07,21,54,-0.70
2011,12,07,21,55,-0.70
2011,12,07,21,56,-0.80
2011,12,07,21,57,-0.80
2011,12,07,21,58,-0.80
2011,12,07,21,59,-0.80
2011,12,07,22,00,-0.80
2011,12,07,22,01,-0.80
2011,12,07,22,02,-0.80
2011,12,07,22,03,-0.80
2011,12,07,22,04,-0.80
2011,12,07,22,05,-0.80
2011,12,07,22,06,-0.80
2011,12,07,22,07,-0.80
2011,12,07,22,08,-0.80
2011,12,07,22,09,-0.80
2011,12,07,22,10,-0.80
2011,12,07,22,11,-0.80
2011,12,07,22,12,-0.70
2011,12,07,22,13,-0.70
2011,12,07,22,14,-0.70
2011,12,07,22,15,-0.60
2011,12,07,22,16,-0.60
2011,12,07,22,17,-0.60
2011,12,07,22,18,-0.60
2011,12,07,22,19,-0.60
2011,12,07,22,20,-0.60
2011,12,07,22,21,-0.40
2011,12,07,22,22,-0.40
2011,12,07,22,23,-0.40
2011,12,07,22,24,-0.40
2011,12,07,22,25,-0.40
2011,12,07,22,26,-0.40
2011,12,07,22,27,-0.40
2011,12,07,22,28,-0.40
2011,12,07,22,29,-0.40
2011,12,07,22,30,-0.40
2011,12,07,22,31,-0.40
2011,12,07,22,32,-0.40
2011,12,07,22,33,-0.40
2011,12,07,22,34,-0.40
2011,12,07,22,35,-0.40
2011,12,07,22,36,-0.40
2011,12,07,22,37,-0.40
2011,12,07,22,38,-0.40
2011,12,07,22,39,-0.40
2011,12,07,22,40,-0.40
2011,12,07,22,41,-0.50
2011,12,07,22,42,-0.60
2011,12,07,22,43,-0.60
2011,12,07,22,44,-0.60
2011,12,07,22,45,-0.60
2011,12,07,22,46,-0.60
2011,12,07,22,47,-0.60
2011,12,07,22,48,-0.60
2011,12,07,22,49,-0.70
2011,12,07,22,50,-0.70
2011,12,07,22,51,-0.70
2011,12,07,22,52,-0.80
2011,12,07,22,53,-0.80
2011,12,07,22,54,-0.80
2011,12,07,22,55,-0.80
2011,12,07,22,56,-0.80
2011,12,07,22,57,-0.80
2011,12,07,22,58,-0.80
2011,12,07,22,59,-0.80
2011,12,07,23,00,-0.80
2011,12,07,23,01,-0.80
2011,12,07,23,02,-0.80
2011,12,07,23,03,-0.80
2011,12,07,23,04,-0.80
2011,12,07,23,05,-0.80
2011,12,07,23,06,-0.80
2011,12,07,23,07,-0.80
2011,12,07,23,08,-0.80
2011,12,07,23,09,-0.80
2011,12,07,23,10,-0.80
2011,12,07,23,11,-0.80
2011,12,07,23,12,-0.80
2011,12,07,23,13,-0.80
2011,12,07,23,14,-0.70
2011,12,07,23,15,-0.70
2011,12,07,23,16,-0.70
2011,12,07,23,17,-0.70
2011,12,07,23,18,-0.70
2011,12,07,23,19,-0.70
2011,12,07,23,20,-0.70
2011,12,07,23,21,-0.70
2011,12,07,23,22,-0.70
2011,12,07,23,23,-0.70
2011,12,07,23,24,-0.70
2011,12,07,23,25,-0.70
2011,12,07,23,26,-0.70
2011,12,07,23,27,-0.70
2011,12,07,23,28,-0.70
2011,12,07,23,29,-0.70
2011,12,07,23,30,-0.80
2011,12,07,23,31,-0.80
2011,12,07,23,32,-0.80
2011,12,07,23,33,-0.80
2011,12,07,23,34,-0.80
2011,12,07,23,35,-0.80
2011,12,07,23,36,-0.80
2011,12,07,23,37,-0.80
2011,12,07,23,38,-0.80
2011,12,07,23,39,-0.80
2011,12,07,23,40,-0.90
2011,12,07,23,41,-0.90
2011,12,07,23,42,-0.90
2011,12,07,23,43,-0.90
2011,12,07,23,44,-0.90
2011,12,07,23,45,-0.90
2011,12,07,23,46,-0.90
2011,12,07,23,47,-0.90
2011,12,07,23,48,-0.90
2011,12,07,23,49,-0.90
2011,12,07,23,50,-1.00
2011,12,07,23,51,-1.10
2011,12,07,23,52,-1.10
2011,12,07,23,53,-1.10
2011,12,07,23,54,-1.10
2011,12,07,23,55,-1.10
2011,12,07,23,56,-1.10
2011,12,07,23,57,-1.10
2011,12,07,23,58,-1.10
2011,12,07,23,59,-1.10
